Location: Amherst
(42.5000°N, 72.5000°W)
Time: 17:30:50
(UTC-04:00)

ISS - Pass Details

Date: 21 July 2018
Orbit: 402 x 408 km, 51.6° (Epoch: 16 July)

Event Time Altitude Azimuth Distance (km) Brightness Sun altitude
Rises 04:47:48 0° 292° (WNW) 2,329 -0.3 -7.6°
Reaches altitude 10° 04:50:15 10° 275° (W) 1,465 -1.4 -7.2°
Maximum altitude 04:52:42 20° 226° (SW) 1,015 -2.4 -6.8°
Drops below altitude 10° 04:55:10 10° 177° (S) 1,458 -1.3 -6.5°
Sets 04:57:35 0° 160° (SSE) 2,314 -0.1 -6.1°
